Weather reports worldwide

Advertisment
Park Rapids, mn, United States of America (2072949): temperature & dewpoint: 31.05.2020 06:00:00 - 06.06.2020 06:00:00 (CDT)Park Rapids, mn, United States of America (2072949): wind speed & gusts: 31.05.2020 06:00:00 - 06.06.2020 06:00:00 (CDT)Park Rapids, mn, United States of America (2072949): wind direction: 31.05.2020 06:00:00 - 06.06.2020 06:00:00 (CDT)Park Rapids, mn, United States of America (2072949): reduced air pressure: 31.05.2020 06:00:00 - 06.06.2020 06:00:00 (CDT)Park Rapids, mn, United States of America (2072949): visibility: 31.05.2020 06:00:00 - 06.06.2020 06:00:00 (CDT)Park Rapids, mn, United States of America (2072949): precipitation: 31.05.2020 06:00:00 - 06.06.2020 06:00:00 (CDT)
Date & Time tt [°C] td [°C] ff [km/h] ff [kn] fx [km/h] fx [kn] dd ppp [hPa] vv [km] rr [mm]
06.06.2020 06:00:00 7,8 5,0 0 0 - - N 1019,9 16 -
06.06.2020 05:00:00 8,9 6,1 8 4 - - NE 1019,3 16 -
06.06.2020 04:00:00 8,3 5,6 0 0 - - N 1019,7 16 -
06.06.2020 03:00:00 8,3 5,6 5 3 - - WSW 1019,4 16 -
06.06.2020 02:00:00 10,6 6,7 0 0 - - N 1019,1 16 -
06.06.2020 01:00:00 9,4 5,0 0 0 - - N 1019,3 16 -
06.06.2020 00:00:00 11,1 5,6 0 0 - - N 1018,9 16 -
05.06.2020 23:00:00 14,4 5,0 8 4 - - N 1018,2 16 -
05.06.2020 22:00:00 17,8 4,4 9 5 - - N 1017,3 16 -
05.06.2020 21:00:00 18,9 3,9 13 7 - - N 1016,5 16 -
05.06.2020 20:00:00 21,1 2,8 18 10 - - NNW 1016,1 16 -
05.06.2020 19:00:00 22,2 2,2 29 16 - - NW 1015,9 16 -
05.06.2020 18:00:00 23,3 3,9 24 13 52 28 NNW 1015,6 16 -
05.06.2020 17:00:00 23,3 3,9 28 15 57 31 NW 1015,1 16 -
05.06.2020 16:00:00 23,9 3,9 31 17 65 35 NNW 1015,2 16 -
05.06.2020 15:00:00 23,3 3,9 37 20 65 35 NW 1014,9 16 -
05.06.2020 14:00:00 23,9 2,8 41 22 63 34 NW 1014,6 16 -
05.06.2020 13:00:00 23,3 3,9 37 20 55 30 WNW 1014,7 16 -
05.06.2020 12:00:00 22,2 4,4 28 15 48 26 NW 1014,5 16 -
05.06.2020 11:00:00 21,1 6,7 24 13 - - WNW 1013,9 16 -
05.06.2020 10:00:00 20,0 7,8 22 12 - - WNW 1013,6 16 -
05.06.2020 09:00:00 18,3 9,4 16 9 - - WNW 1013,1 16 -
05.06.2020 08:00:00 16,1 10,6 16 9 - - W 1012,6 16 -
05.06.2020 07:00:00 12,8 11,1 0 0 - - N 1011,5 16 -
05.06.2020 06:00:00 11,1 9,4 5 3 - - SW 1010,7 16 -
05.06.2020 05:00:00 12,8 10,6 9 5 - - SSE 1009,8 16 -
05.06.2020 04:00:00 13,9 10,0 9 5 - - N 1010,1 16 0,0
05.06.2020 03:00:00 15,0 10,6 29 16 - - N 1010,7 8 1,0
05.06.2020 02:00:00 16,1 12,2 9 5 - - NW 1008,8 16 0,0
05.06.2020 01:00:00 17,8 11,1 8 4 - - N 1007,9 16 0,0
05.06.2020 00:00:00 17,2 11,1 11 6 - - W 1008,7 16 0,0
04.06.2020 23:00:00 20,6 7,8 21 11 - - W 1008,7 16 -
04.06.2020 22:00:00 20,0 6,7 8 4 - - WSW 1008,0 16 -
04.06.2020 21:00:00 21,7 5,6 9 5 - - S 1007,1 16 -
04.06.2020 20:00:00 22,8 5,6 11 6 - - SSW 1007,1 16 -
04.06.2020 19:00:00 26,1 2,2 11 6 - - W 1006,9 16 -
04.06.2020 18:00:00 26,7 2,2 11 6 - - SW 1007,3 16 -
04.06.2020 17:00:00 27,2 2,8 16 9 - - W 1007,3 16 -
04.06.2020 16:00:00 26,7 1,7 11 6 - - W 1007,9 16 -
04.06.2020 15:00:00 27,2 2,8 21 11 - - WSW 1008,2 16 -
04.06.2020 14:00:00 26,1 0,6 26 14 - - WNW 1008,6 16 -
04.06.2020 13:00:00 25,6 0,0 18 10 - - NW 1008,8 16 -
04.06.2020 12:00:00 25,0 1,1 18 10 - - NW 1009,0 16 -
04.06.2020 11:00:00 22,8 3,3 13 7 - - WNW 1009,2 16 -
04.06.2020 10:00:00 21,1 8,3 8 4 - - WSW 1009,1 16 -
04.06.2020 09:00:00 18,3 10,6 0 0 - - N 1008,3 16 -
04.06.2020 08:00:00 16,7 14,4 8 4 - - W 1008,4 16 -
04.06.2020 07:00:00 13,3 11,1 0 0 - - N 1008,1 16 -
04.06.2020 06:00:00 11,1 9,4 9 5 - - WNW 1007,3 16 -
04.06.2020 05:00:00 13,3 9,4 0 0 - - N 1006,7 16 -
04.06.2020 04:00:00 13,9 11,1 8 4 - - SSE 1006,5 16 2,3
04.06.2020 03:00:00 14,4 10,0 13 7 - - W 1006,3 11 2,3
04.06.2020 02:00:00 17,2 6,7 16 9 - - S 1006,0 16 -
04.06.2020 01:00:00 17,2 6,1 18 10 - - S 1006,9 16 -
04.06.2020 00:00:00 16,7 6,7 16 9 - - SSE 1007,0 16 -
03.06.2020 23:00:00 17,2 8,3 13 7 - - SSE 1007,7 16 -
03.06.2020 22:00:00 19,4 6,7 9 5 - - SE 1007,9 16 -
03.06.2020 21:00:00 22,8 5,0 8 4 - - SE 1007,9 16 -
03.06.2020 20:00:00 23,3 5,6 5 3 - - S 1008,5 16 -
03.06.2020 19:00:00 23,3 5,0 5 3 - - WSW 1009,5 16 -
03.06.2020 18:00:00 25,6 4,4 13 7 - - SW 1009,8 16 -
03.06.2020 17:00:00 24,4 3,3 5 3 - - N 1010,2 16 -
03.06.2020 16:00:00 24,4 2,8 15 8 - - NNW 1010,6 16 -
03.06.2020 15:00:00 25,6 2,2 - - - - - 1010,4 16 -
03.06.2020 14:00:00 24,4 2,2 0 0 - - N 1011,3 15 -
03.06.2020 13:00:00 24,4 1,7 15 8 - - NNE 1011,6 16 -
03.06.2020 12:00:00 23,9 2,2 15 8 - - N 1012,4 16 -
03.06.2020 11:00:00 22,8 2,2 13 7 - - NE 1012,2 16 -
03.06.2020 10:00:00 21,1 3,9 11 6 - - N 1012,9 16 -
03.06.2020 09:00:00 20,0 6,7 9 5 - - N 1012,8 16 -
03.06.2020 08:00:00 17,2 8,9 9 5 - - NNW 1013,0 16 -
03.06.2020 07:00:00 13,3 8,9 0 0 - - N 1013,0 16 -
03.06.2020 06:00:00 10,6 6,7 5 3 - - W 1012,6 16 -
03.06.2020 05:00:00 12,8 7,2 5 3 - - NW 1012,1 16 -
03.06.2020 04:00:00 16,7 7,8 16 9 - - N 1011,4 16 -
03.06.2020 03:00:00 16,7 8,3 16 9 - - NNW 1011,1 16 -
03.06.2020 02:00:00 14,4 8,9 11 6 - - WNW 1011,2 16 -
03.06.2020 01:00:00 15,0 10,0 5 3 - - W 1011,3 16 -
03.06.2020 00:00:00 15,0 11,7 8 4 - - W 1011,5 16 -
02.06.2020 23:00:00 17,8 12,8 5 3 - - SSW 1010,9 16 -
02.06.2020 22:00:00 18,9 11,7 8 4 - - W 1010,6 16 -
02.06.2020 21:00:00 23,3 8,9 5 3 - - WNW 1009,7 16 -
02.06.2020 20:00:00 25,0 10,6 8 4 - - NW 1009,6 16 -
02.06.2020 19:00:00 26,1 8,3 13 7 - - NNW 1010,1 16 -
02.06.2020 18:00:00 28,3 8,9 11 6 - - NW 1010,6 16 -
02.06.2020 17:00:00 28,3 8,3 18 10 - - WNW 1011,0 16 -
02.06.2020 16:00:00 28,3 7,8 21 11 - - NW 1011,1 16 -
02.06.2020 15:00:00 27,2 7,8 9 5 - - - 1011,6 16 -
02.06.2020 14:00:00 25,0 11,1 8 4 - - - 1011,2 16 -
02.06.2020 13:00:00 20,6 15,6 9 5 - - NNW 1011,7 16 0,3
02.06.2020 12:00:00 18,9 13,9 15 8 - - ESE 1011,0 15 1,3
02.06.2020 11:00:00 24,4 8,9 11 6 - - NW 1012,4 16 -
02.06.2020 10:00:00 25,0 8,9 9 5 - - - 1010,4 16 -
02.06.2020 09:00:00 23,3 9,4 11 6 - - NNE 1010,4 16 -
02.06.2020 08:00:00 20,6 10,6 11 6 - - N 1009,6 16 -
02.06.2020 07:00:00 15,6 12,8 0 0 - - N 1009,7 16 -
02.06.2020 06:00:00 13,3 10,6 5 3 - - WNW 1009,2 16 -
02.06.2020 05:00:00 13,9 11,1 0 0 - - N 1008,7 16 -
02.06.2020 04:00:00 14,4 11,1 0 0 - - N 1008,5 16 -
02.06.2020 03:00:00 14,4 11,7 8 4 - - NW 1008,4 16 -
02.06.2020 02:00:00 15,0 13,3 8 4 - - NW 1008,2 16 -
02.06.2020 01:00:00 17,8 16,1 5 3 - - W 1007,7 16 -
02.06.2020 00:00:00 20,0 16,1 0 0 - - N 1007,5 16 -
01.06.2020 23:00:00 20,6 18,9 11 6 - - WNW 1007,3 16 -
01.06.2020 22:00:00 21,1 19,4 9 5 - - WSW 1006,6 15 -
01.06.2020 21:00:00 22,2 20,0 0 0 - - N 1006,4 16 2,3
01.06.2020 20:00:00 26,1 18,9 9 5 - - WNW 1005,9 16 0,0
01.06.2020 19:00:00 28,3 16,7 9 5 - - SW 1005,9 16 -
01.06.2020 18:00:00 31,7 16,7 18 10 - - W 1006,0 16 -
01.06.2020 17:00:00 31,7 16,7 13 7 - - SW 1006,1 16 -
01.06.2020 16:00:00 31,1 16,7 15 8 - - SSW 1006,2 16 -
01.06.2020 15:00:00 30,0 16,7 18 10 - - SSW 1006,5 16 -
01.06.2020 14:00:00 28,9 16,7 18 10 - - WSW 1006,9 16 -
01.06.2020 13:00:00 27,2 16,1 16 9 - - SSW 1007,3 16 -
01.06.2020 12:00:00 25,0 15,0 22 12 - - S 1007,9 16 -
01.06.2020 11:00:00 23,3 14,4 18 10 - - S 1008,2 16 -
01.06.2020 10:00:00 20,6 13,9 18 10 - - S 1009,4 16 -
01.06.2020 09:00:00 19,4 13,3 21 11 - - S 1009,6 16 -
01.06.2020 08:00:00 20,0 11,7 28 15 - - SSE 1009,3 16 -
01.06.2020 07:00:00 17,2 10,0 18 10 - - SSE 1009,0 16 -
01.06.2020 06:00:00 16,7 8,9 18 10 - - SE 1009,8 16 -
01.06.2020 05:00:00 17,8 8,3 21 11 - - SSE 1011,1 16 -
01.06.2020 04:00:00 17,8 7,8 21 11 - - SSE 1012,3 16 -
01.06.2020 03:00:00 18,3 7,2 26 14 - - SSE 1013,1 16 -
01.06.2020 02:00:00 18,3 7,2 21 11 - - SSE 1014,1 16 -
01.06.2020 01:00:00 16,7 7,2 16 9 - - SSE 1015,4 16 -
01.06.2020 00:00:00 17,8 6,7 22 12 - - SE 1015,5 16 -
31.05.2020 23:00:00 18,9 6,7 21 11 - - SE 1015,8 16 -
31.05.2020 22:00:00 20,6 6,1 24 13 - - SE 1016,3 16 -
31.05.2020 21:00:00 21,1 6,1 16 9 - - SE 1016,3 16 -
31.05.2020 20:00:00 22,8 5,6 21 11 - - SE 1017,1 16 -
31.05.2020 19:00:00 16,7 -5,6 11 6 - - NNE 1025,2 16 -
31.05.2020 18:00:00 24,4 3,9 28 15 - - SSE 1018,7 16 -
31.05.2020 17:00:00 23,9 4,4 18 10 - - S 1019,9 16 -
31.05.2020 16:00:00 23,3 4,4 18 10 - - SSW 1020,4 16 -
31.05.2020 15:00:00 22,2 3,3 21 11 - - SSE 1021,5 16 -
31.05.2020 14:00:00 22,2 1,7 18 10 - - SSE 1022,4 16 -
31.05.2020 13:00:00 20,6 0,0 15 8 - - SSE 1023,6 16 -
31.05.2020 12:00:00 19,4 0,0 22 12 - - SSE 1024,4 16 -
31.05.2020 11:00:00 18,3 0,6 16 9 - - SSW 1025,0 16 -
31.05.2020 10:00:00 16,7 0,6 18 10 - - S 1025,6 16 -
31.05.2020 09:00:00 14,4 1,1 16 9 - - S 1025,9 16 -
31.05.2020 08:00:00 9,4 2,2 11 6 - - SSE 1026,4 16 -
31.05.2020 07:00:00 3,9 0,6 0 0 - - N 1026,5 16 -
31.05.2020 06:00:00 1,7 -1,1 0 0 - - N 1026,3 16 -

tt = temperature
td = dewpoint
ff = wind speed
fx = gusts
dd = wind direction
ppp = reduced air pressure
vv = visibility
rr = precipitation

Next stations